User: anonymous   Login
Location: Andrest
(43.3200°N, 0.0641°E)
Time: 17:42:34
(UTC+00:00)
Language:

Okean O Rocket - Orbit

View from above orbital plane
View from above orbital plane
View from above satellite
View from above satellite

Ground track
Ground track

The orbit data is extracted from the following two-line orbital elements,

1 25861U 99039B   21128.28416917  .00000025  00000-0  10888-4 0  9990
2 25861  98.2061 142.8730 0015338 189.8588 180.5827 14.78637360175764
Epoch (UTC): 08 May 2021 06:49:12
Eccentricity: 0.0015338
inclination: 98.2061°
perigee height: 623 km
apogee height: 644 km
right ascension of ascending node: 142.8730°
argument of perigee: 189.8588°
revolutions per day: 14.78637360
mean anomaly at epoch: 180.5827°
orbit number at epoch: 17576

The dashed part of the orbit path shows where the satellite is in the earth's shadow,  

DLR